Date,TemperatureHighF,TemperatureAvgF,TemperatureLowF,DewpointHighF,DewpointAvgF,DewpointLowF,HumidityHigh,HumidityAvg,HumidityLow,PressureMaxIn,PressureMinIn,WindSpeedMaxMPH,WindSpeedAvgMPH,GustSpeedMaxMPH,PrecipitationSumIn
2013-1-1,29,15,4,17,5,-4,74,66,52,30.41,30.26,8,2,13,0.01
2013-1-2,28,14,4,13,4,-5,72,63,49,30.37,30.22,11,3,17,0.00
2013-1-3,32,16,5,15,5,-3,72,62,47,30.32,30.20,10,3,20,0.00
2013-1-4,35,19,8,18,8,-1,72,63,49,30.34,30.23,9,2,13,0.00
2013-1-5,31,23,14,27,15,6,86,71,61,30.24,30.13,14,4,20,0.00
2013-1-6,33,29,26,28,24,21,87,82,80,30.24,30.12,8,2,13,0.09
2013-1-7,38,30,27,33,25,22,84,80,72,30.27,30.21,11,3,14,0.01
2013-1-8,33,33,32,29,29,28,86,85,85,30.29,30.26,1,0,3,0.00
2013-1-11,14,10,6,0,-3,-6,60,55,49,30.16,30.13,3,1,5,0.00
2013-1-12,21,7,-2,6,-5,-12,64,58,45,30.22,30.16,8,2,12,0.00
2013-1-13,20,4,-7,6,-7,-17,63,58,48,30.32,30.21,5,1,8,0.00
2013-1-14,25,10,-2,9,-2,-13,63,57,46,30.44,30.32,6,2,11,0.01
2013-1-15,33,16,5,12,2,-5,67,55,40,30.60,30.44,10,3,14,0.00
2013-1-16,35,18,5,17,5,-5,67,57,43,30.61,30.50,10,3,18,0.00
2013-1-17,38,21,7,18,8,-3,69,57,40,30.50,30.37,7,2,11,0.00
2013-1-18,40,20,6,20,7,-4,72,58,41,30.42,30.34,9,2,14,0.00
2013-1-19,38,18,6,18,5,-4,67,57,40,30.43,30.33,9,2,14,0.00
2013-1-20,39,18,4,18,5,-6,65,56,39,30.41,30.33,7,2,12,0.00
2013-1-21,40,20,4,19,6,-6,65,55,41,30.35,30.23,10,2,17,0.00
2013-1-22,48,25,13,19,11,2,64,54,21,30.25,30.07,9,3,24,0.00
2013-1-23,50,44,36,35,20,6,88,43,18,30.14,30.01,25,9,42,0.13
2013-1-24,44,37,32,38,33,28,91,85,79,30.24,30.14,9,2,13,0.01
2013-1-25,39,35,31,38,32,28,95,90,87,30.23,30.01,6,1,98,0.13
2013-1-26,39,33,26,32,26,20,91,77,52,30.04,29.95,9,3,15,0.02
2013-1-27,35,28,21,23,20,15,81,69,52,30.12,30.03,11,4,16,0.00
2013-1-28,34,31,28,27,24,21,81,74,66,30.20,30.06,16,7,25,0.00
2013-1-29,44,35,28,30,26,22,82,70,57,30.42,30.19,16,7,25,0.00
2013-1-30,49,34,26,33,26,21,86,72,43,30.46,30.39,6,1,9,0.00
2013-1-31,47,31,23,35,24,18,88,76,56,30.40,30.28,8,2,11,0.00
2013-2-1,50,33,23,33,24,18,82,71,51,30.34,30.27,11,2,14,0.01
2013-2-2,43,32,23,30,24,17,81,71,56,30.37,30.28,7,2,11,0.00
2013-2-3,53,34,21,32,25,16,82,69,40,30.32,30.22,6,1,11,0.00
2013-2-4,51,36,27,32,26,20,81,69,44,30.24,30.06,10,2,14,0.00
2013-2-5,47,36,30,32,26,22,77,67,42,30.13,30.00,15,4,21,0.00
2013-2-6,46,35,24,27,20,8,78,57,28,30.16,29.99,17,4,24,0.00
2013-2-7,37,31,21,26,21,14,84,66,48,30.00,29.94,17,4,25,0.09
2013-2-8,38,27,16,19,13,8,76,57,33,30.10,29.99,9,3,23,0.00
2013-2-9,42,27,15,25,16,6,73,62,45,30.16,30.08,7,2,11,0.00
2013-2-10,45,33,20,25,19,14,78,57,32,30.22,30.15,7,2,16,0.00
2013-2-11,53,35,20,28,20,13,75,58,32,30.31,30.20,8,2,11,0.00
2013-2-12,48,34,24,29,23,17,77,65,42,30.41,30.31,6,2,11,0.00
2013-2-13,28,26,25,22,20,19,79,78,76,30.42,30.40,2,0,4,0.00
2013-2-14,52,37,25,32,26,19,83,66,40,30.48,30.39,8,2,10,0.00
2013-2-15,57,38,26,32,26,19,79,64,32,30.44,30.30,13,2,15,0.00
2013-2-16,54,38,26,32,25,18,78,61,32,30.32,30.13,18,5,21,0.00
2013-2-17,45,32,20,21,16,5,75,53,20,30.18,30.05,7,2,8,0.00
2013-2-18,44,33,25,26,20,14,83,62,31,30.05,29.81,11,3,14,0.00
2013-2-19,33,28,22,27,21,15,86,76,67,29.91,29.66,10,2,17,0.07
2013-2-20,37,26,10,25,16,2,83,67,48,30.05,29.91,8,2,12,0.05
2013-2-21,38,29,19,24,19,11,80,67,48,30.20,30.04,14,3,19,0.00
2013-2-22,46,34,25,32,26,19,84,72,50,30.22,29.98,27,6,42,0.09
2013-2-23,35,29,23,26,18,15,84,64,50,30.31,30.06,13,5,18,0.00
2013-2-24,44,29,18,24,17,10,76,62,35,30.35,30.19,3,1,10,0.00
2013-2-25,40,33,26,27,20,14,83,60,35,30.29,30.14,16,6,30,0.00
2013-2-26,44,30,20,21,16,12,74,57,30,30.33,30.25,8,2,13,0.00
2013-2-27,48,34,23,29,20,13,71,57,34,30.34,30.27,11,3,15,0.00
2013-2-28,50,41,35,40,34,28,85,76,65,30.50,30.33,10,3,15,0.02
2013-3-1,57,39,29,42,32,25,94,78,45,30.51,30.36,10,2,14,0.01
2013-3-2,56,41,29,39,30,25,86,69,39,30.36,30.16,10,3,15,0.01
2013-3-3,51,40,27,37,29,20,88,67,38,30.17,30.07,7,2,14,0.07
2013-3-4,57,39,22,33,25,16,79,59,28,30.14,29.98,24,6,31,0.00
2013-3-5,46,42,38,35,28,20,72,57,40,29.98,29.70,33,13,56,0.00
2013-3-6,39,34,29,29,25,20,86,72,49,29.99,29.62,25,11,38,0.02
2013-3-7,44,33,26,25,21,15,84,63,34,30.00,29.94,12,4,16,0.02
2013-3-8,48,34,20,27,19,12,77,57,23,30.13,29.94,10,3,22,0.00
2013-3-9,53,38,23,24,18,9,75,49,17,30.44,30.14,9,3,13,0.00
2013-3-10,59,40,24,29,20,11,77,50,15,30.47,30.35,10,3,15,0.00
2013-3-11,61,43,28,37,31,24,94,67,30,30.38,30.24,7,2,11,0.00
2013-3-12,65,46,28,40,30,21,100,65,18,30.27,30.18,7,2,11,0.00
2013-3-13,67,43,32,36,32,16,91,69,14,30.29,30.20,11,3,13,0.00
2013-3-14,66,48,37,39,32,18,84,59,16,30.24,30.18,11,4,14,0.00
2013-3-15,62,46,34,38,32,25,91,63,26,30.25,30.16,11,2,14,0.00
2013-3-16,55,39,27,39,31,19,100,76,24,30.21,30.07,21,9,30,0.00
2013-3-17,49,37,29,29,23,15,81,59,25,30.19,30.08,22,8,37,0.00
2013-3-18,28,26,24,23,20,19,84,79,74,30.17,30.16,2,1,3,0.00
2013-3-19,55,44,32,38,32,26,83,65,42,30.11,29.96,27,10,30,0.00
2013-3-20,53,46,44,41,36,35,86,68,56,30.12,29.88,34,20,40,0.08
2013-3-21,44,28,24,35,21,17,76,74,67,30.22,30.12,15,2,21,0.00
2013-3-22,39,29,22,22,18,11,78,66,42,30.25,30.17,12,4,17,0.00
2013-3-23,50,32,17,24,14,3,79,50,17,30.26,30.13,9,3,11,0.00
2013-3-24,54,41,24,33,25,18,81,56,30,30.18,30.03,9,3,14,0.00
2013-3-25,59,46,30,35,29,18,88,58,21,30.06,29.91,17,6,24,0.00
2013-3-26,52,45,39,41,38,35,95,78,52,30.01,29.96,12,4,16,0.02
2013-3-27,56,46,36,43,38,31,100,77,39,30.02,29.96,20,8,27,0.01
2013-3-28,56,48,36,43,37,31,86,69,40,30.17,30.02,22,8,30,0.00
2013-3-29,66,47,33,42,34,26,96,67,22,30.24,30.16,12,4,17,0.00
2013-3-30,71,52,32,42,33,15,92,56,12,30.22,30.06,15,4,24,0.00
2013-3-31,52,48,42,46,41,37,100,78,63,30.11,30.02,13,5,23,0.17
2013-4-1,49,43,38,43,40,38,100,92,77,30.20,30.06,10,6,14,0.56
2013-4-2,53,43,34,44,40,34,100,89,68,30.25,30.17,9,2,11,0.00
2013-4-3,63,48,32,50,39,27,100,77,34,30.22,30.04,16,5,23,0.00
2013-4-4,56,51,41,43,39,34,85,66,43,30.03,29.94,31,12,46,0.04
2013-4-5,54,46,40,40,37,33,95,74,49,30.10,30.03,15,7,26,0.02
2013-4-6,55,45,40,40,37,29,96,75,38,30.10,29.99,24,10,34,0.08
2013-4-7,47,42,32,40,35,30,92,77,59,29.98,29.82,27,11,40,0.04
2013-4-8,45,37,28,31,26,19,93,65,50,30.20,29.86,14,5,21,0.02
2013-4-9,59,44,26,41,29,20,82,59,22,30.30,30.20,11,4,17,0.00
2013-4-10,45,40,36,39,37,33,94,89,79,30.31,30.30,2,1,5,0.00
2013-4-14,46,34,22,26,21,7,90,62,23,30.04,29.85,9,3,11,0.00
2013-4-15,41,32,27,30,27,21,100,80,50,30.06,29.87,16,5,22,0.01
2013-4-16,44,34,25,32,24,16,86,68,53,30.28,30.06,14,4,18,0.01
2013-4-17,51,39,25,28,20,11,79,50,20,30.37,30.29,11,5,18,0.00
2013-4-18,61,45,29,39,31,24,85,60,32,30.39,30.31,10,3,14,0.00
2013-4-19,56,46,37,43,37,31,100,75,50,30.34,30.24,27,7,30,0.00
2013-4-20,63,46,26,36,30,13,100,61,15,30.31,30.18,11,3,14,0.00
2013-4-21,63,47,29,41,35,27,100,67,30,30.25,30.19,11,4,16,0.00
2013-4-22,56,46,33,40,25,8,100,52,16,30.30,30.21,18,8,30,0.00
2013-4-23,65,48,28,29,14,6,62,29,11,30.32,30.08,20,7,35,0.00
2013-4-24,50,45,43,8,5,3,22,19,17,30.19,30.16,20,10,33,0.00
2013-4-25,72,54,31,41,24,10,76,39,10,30.21,30.09,11,4,16,0.00
2013-4-26,76,57,36,43,34,17,100,52,11,30.32,30.21,7,2,10,0.00
2013-4-27,76,58,38,42,31,11,95,47,10,30.34,30.23,10,3,11,0.00
2013-4-28,67,55,39,40,35,26,83,52,23,30.26,30.17,9,4,12,0.00
2013-4-29,59,49,38,42,37,29,90,65,34,30.20,30.07,15,5,17,0.00
2013-4-30,57,45,31,34,15,2,79,37,14,30.30,30.06,14,5,23,0.00
2013-5-1,59,47,31,21,15,6,62,31,14,30.46,30.30,19,7,27,0.00
2013-5-2,75,57,43,37,14,3,57,21,10,30.46,30.27,19,6,23,0.00
2013-5-3,75,59,38,35,23,9,82,34,10,30.28,30.13,17,5,35,0.00
2013-5-4,66,58,49,32,25,17,41,29,17,30.19,29.93,23,13,34,0.00
2013-5-5,69,58,47,44,37,32,81,47,25,29.93,29.82,21,8,37,0.00
2013-5-6,72,54,42,50,43,38,100,72,29,30.00,29.88,18,3,32,0.04
2013-5-7,64,54,47,52,50,46,100,88,60,30.10,29.98,10,3,14,0.09
2013-5-8,67,53,42,53,48,42,100,86,50,30.20,30.08,17,3,24,0.06
2013-5-9,76,59,41,53,47,40,100,71,33,30.25,30.18,11,3,19,0.00
2013-5-10,81,64,45,52,46,35,95,58,19,30.31,30.23,9,3,21,0.00
2013-5-11,84,68,50,55,48,38,100,57,23,30.31,30.19,16,4,24,0.00
2013-5-12,82,67,50,55,46,24,90,54,12,30.25,30.13,14,5,23,0.00
2013-5-13,75,60,45,49,44,38,95,59,32,30.19,30.13,14,5,28,0.00
2013-5-14,73,56,37,47,39,31,100,59,22,30.19,30.07,10,3,24,0.00
2013-5-15,68,53,42,47,42,35,100,70,31,30.13,30.06,14,4,16,0.00
2013-5-16,59,49,42,47,43,39,97,80,54,30.09,29.95,7,2,15,0.12
2013-5-17,61,50,41,42,38,29,94,66,30,30.13,30.01,8,4,21,0.02
2013-5-18,59,47,34,44,38,33,100,74,43,30.29,30.13,13,4,22,0.00
2013-5-19,65,51,33,43,36,31,93,61,31,30.35,30.24,8,3,16,0.00
2013-5-20,74,57,39,41,33,12,81,45,10,30.30,30.03,9,4,15,0.00
2013-5-21,54,46,31,46,34,19,93,66,26,30.04,29.90,22,9,36,0.00
2013-5-22,50,38,26,32,26,21,87,64,40,30.06,29.99,10,5,21,0.00
2013-5-23,55,42,32,38,32,27,100,71,33,30.06,29.99,11,3,21,0.09
2013-5-24,61,47,34,39,33,21,86,61,22,30.08,30.01,10,3,17,0.00
2013-5-25,67,50,32,45,34,14,100,62,13,30.08,29.99,17,4,22,0.02
2013-5-26,61,50,44,44,41,37,89,71,41,30.12,30.04,11,5,21,0.02
2013-5-27,58,48,40,49,44,38,100,86,64,30.11,29.93,20,6,24,0.22
2013-5-28,64,53,42,45,42,36,100,70,37,30.03,29.92,10,5,21,0.04
2013-5-29,61,50,42,42,38,36,88,67,43,30.08,29.90,17,6,22,0.02
2013-5-30,66,52,34,39,33,22,96,54,21,30.21,30.08,9,4,17,0.00
2013-5-31,74,58,40,44,35,12,90,47,10,30.28,30.21,7,3,10,0.00
2013-6-1,79,61,44,47,40,34,86,52,20,30.25,30.08,13,3,19,0.00
2013-6-2,77,60,41,49,41,18,100,55,12,30.08,29.98,7,2,17,0.00
2013-6-3,81,64,43,47,39,20,82,45,11,30.10,30.02,6,2,14,0.00
2013-6-4,65,65,65,47,47,47,52,52,52,30.10,30.09,2,2,6,0.00
2013-6-5,88,78,59,51,44,24,61,33,10,30.18,30.06,6,2,11,0.00
2013-6-6,88,76,59,54,46,24,82,41,10,30.13,30.04,14,2,14,0.00
2013-6-7,86,69,52,58,54,49,100,63,30,30.18,30.08,7,2,8,0.00
2013-6-8,89,69,51,55,47,28,95,55,11,30.18,30.08,6,2,8,0.00
2013-6-9,87,84,82,52,50,47,31,30,30,29.95,29.95,6,5,8,0.00
2013-6-10,82,79,76,47,36,21,30,22,11,30.00,29.88,9,6,14,0.00
2013-6-11,76,66,51,47,36,19,70,37,15,30.12,30.00,9,6,18,0.00
2013-6-12,51,48,46,39,38,37,73,69,59,30.11,30.11,6,3,7,0.00
2013-6-13,61,56,43,40,37,34,86,50,39,30.26,30.20,8,4,11,0.00
2013-6-14,73,62,39,36,26,12,83,32,10,30.25,30.07,10,6,14,0.00
2013-6-15,79,68,55,48,37,19,65,37,11,30.10,29.99,8,3,10,0.00
2013-6-16,78,66,45,51,41,23,96,47,13,30.18,30.09,11,4,14,0.00
2013-6-17,78,61,43,48,43,33,96,57,20,30.19,30.01,17,5,22,0.00
2013-6-18,63,52,44,45,42,32,95,73,34,30.06,29.96,11,4,14,0.20
2013-6-19,54,45,39,45,40,37,95,83,60,30.15,30.02,18,6,22,0.12
2013-6-20,63,50,37,43,39,36,100,70,43,30.16,30.08,11,3,17,0.01
2013-6-21,71,56,42,44,38,29,93,55,22,30.18,30.12,6,3,13,0.01
2013-6-22,76,61,42,46,42,36,94,54,25,30.17,30.00,15,2,21,0.00
2013-6-23,65,60,54,54,49,43,86,68,52,30.00,29.82,19,5,28,0.00
2013-6-24,58,53,48,51,48,44,100,84,68,29.92,29.80,20,8,29,0.41
2013-6-25,62,56,52,56,50,46,97,83,71,30.03,29.89,16,5,28,0.19
2013-6-26,72,62,51,56,53,51,100,74,49,30.18,30.02,25,10,35,0.05
2013-6-27,87,69,53,59,53,48,87,60,28,30.27,30.18,13,4,17,0.00
2013-6-28,92,74,54,63,56,49,97,60,24,30.29,30.14,6,2,11,0.00
2013-6-29,88,74,57,62,56,48,95,59,27,30.22,30.12,11,2,17,0.00
2013-6-30,64,64,64,54,54,54,68,68,68,30.16,30.15,0,0,0,0.00
2013-7-1,94,77,60,66,60,52,100,60,25,30.20,30.08,4,1,6,0.00
2013-7-2,99,79,60,67,59,45,94,55,17,30.24,30.13,6,2,12,0.00
2013-7-3,94,78,62,63,58,52,86,53,27,30.25,30.10,10,2,14,0.00
2013-7-4,86,72,56,59,54,48,94,57,26,30.17,29.99,8,2,18,0.00
2013-7-5,85,69,51,54,48,27,93,54,13,30.03,29.92,6,2,13,0.00
2013-7-6,88,67,52,55,48,38,85,57,17,29.99,29.90,7,1,11,0.00
2013-7-7,88,71,53,58,52,41,97,57,22,30.04,29.93,7,2,14,0.00
2013-7-8,89,69,53,57,52,42,93,60,21,30.16,30.04,4,1,9,0.00
2013-7-9,89,72,53,56,38,12,92,40,10,30.22,30.14,21,5,28,0.00
2013-7-10,88,72,53,55,44,18,93,44,10,30.19,29.99,15,3,26,0.00
2013-7-11,66,61,57,56,54,51,83,76,64,30.08,30.06,2,1,4,0.00
2013-7-12,81,66,50,51,45,34,93,53,19,30.11,30.01,13,2,16,0.00
2013-7-13,85,67,49,53,46,40,81,51,23,30.16,30.06,8,2,10,0.00
2013-7-14,82,64,51,53,46,40,91,58,23,30.20,30.15,7,1,13,0.00
2013-7-15,89,72,52,54,47,39,91,48,19,30.10,29.94,5,2,8,0.00
2013-7-16,82,71,57,54,37,17,81,38,10,30.08,29.98,30,7,32,0.00
2013-7-17,83,65,50,48,46,43,81,53,24,30.24,30.21,4,2,8,0.00
2013-7-18,91,71,51,55,47,25,92,51,10,30.25,30.12,6,2,11,0.00
2013-7-19,96,75,52,57,49,30,91,49,10,30.19,30.06,5,2,9,0.00
2013-7-20,92,76,54,59,53,50,95,53,27,30.12,30.01,2,1,4,0.00
2013-7-21,93,82,61,55,44,33,78,32,12,30.07,29.97,4,1,6,0.00
2013-7-22,93,66,55,53,49,33,88,62,12,30.12,30.05,2,1,4,0.00
2013-7-23,68,59,56,54,53,49,83,80,52,30.17,30.08,2,0,3,0.00
2013-7-24,68,61,59,56,53,50,86,74,54,30.19,30.16,2,0,2,0.00
2013-7-25,59,50,44,46,43,39,93,76,54,29.81,29.73,9,3,12,0.12
2013-7-26,87,60,41,59,43,29,94,57,30,30.02,29.78,14,5,21,0.02
2013-7-27,70,62,55,54,54,53,92,76,53,30.00,29.81,7,6,9,0.02
2013-7-28,65,60,59,54,53,45,82,79,51,29.86,29.76,7,6,10,0.00
2013-7-29,79,69,51,50,48,43,78,51,35,29.88,29.79,5,1,11,0.59
2013-7-30,92,66,49,48,45,32,86,56,12,29.99,29.92,11,3,14,0.00
2013-7-31,89,71,56,56,49,27,84,51,11,29.98,29.85,14,3,16,0.00
2013-8-1,78,61,48,56,48,36,94,67,22,29.91,29.87,9,3,14,0.00
2013-8-2,85,62,39,48,41,25,99,56,12,29.96,29.87,9,2,11,0.00
2013-8-3,89,69,45,52,40,21,85,43,10,29.95,29.84,7,2,8,0.00
2013-8-4,92,72,48,53,44,23,92,44,10,29.93,29.82,7,3,13,0.02
2013-8-5,89,68,47,55,49,38,100,59,17,29.93,29.82,8,2,12,0.00
2013-8-6,93,69,47,55,47,26,100,57,10,29.93,29.81,7,3,13,0.00
2013-8-7,79,65,54,58,53,47,85,66,34,29.95,29.85,19,5,41,0.05
2013-8-8,77,58,44,57,49,44,100,74,45,29.91,29.83,9,3,14,0.00
2013-8-9,78,58,43,55,48,42,100,75,31,29.87,29.80,12,4,23,0.05
2013-8-10,74,59,46,57,49,45,100,74,38,29.94,29.85,11,3,17,0.01
2013-8-11,81,61,42,54,48,42,100,68,27,29.95,29.84,8,2,14,0.00
2013-8-12,84,62,43,55,48,36,100,68,20,29.93,29.85,9,2,14,0.00
2013-8-13,89,65,43,57,50,43,100,64,25,29.97,29.85,9,3,14,0.00
2013-8-14,59,53,50,52,50,49,97,91,78,29.91,29.91,2,0,4,0.00
2013-8-15,88,65,44,55,49,42,100,65,21,29.91,29.81,10,3,13,0.00
2013-8-16,87,66,47,59,53,47,100,68,30,29.94,29.88,7,3,15,0.00
2013-8-17,88,67,50,61,55,50,100,70,30,29.97,29.85,11,3,20,0.00
2013-8-18,89,68,47,60,53,44,100,66,21,29.99,29.88,8,2,14,0.00
2013-8-19,88,68,49,60,53,48,100,65,27,29.97,29.86,9,3,18,0.00
2013-8-20,85,66,46,61,54,45,100,69,34,29.93,29.82,6,2,11,0.00
2013-8-21,85,68,51,60,52,46,89,60,33,29.91,29.82,24,4,34,0.00
2013-8-22,78,60,47,59,52,45,100,77,45,29.93,29.81,16,4,30,0.01
2013-8-23,83,60,41,56,49,41,100,71,28,29.88,29.73,8,3,14,0.01
2013-8-24,77,58,44,57,51,44,100,80,43,29.79,29.70,11,2,16,0.01
2013-8-25,72,58,47,58,52,46,100,81,47,29.84,29.78,14,3,22,0.04
2013-8-26,75,58,44,54,48,44,100,75,38,29.87,29.83,13,4,21,0.00
2013-8-27,80,60,41,53,40,15,100,59,12,29.87,29.73,13,4,22,0.01
2013-8-28,80,63,42,48,42,33,93,51,23,29.85,29.77,13,5,26,0.00
2013-8-29,80,67,51,56,48,39,91,53,31,29.97,29.83,14,5,24,0.00
2013-8-30,89,62,44,60,50,44,100,71,27,30.02,29.88,8,2,11,0.00
2013-8-31,87,66,44,57,44,26,100,56,16,29.94,29.77,12,4,22,0.00
2013-9-1,82,67,48,50,42,21,81,45,11,29.85,29.73,16,6,25,0.00
2013-9-2,79,66,48,53,46,37,91,52,22,29.83,29.75,15,7,30,0.00
2013-9-3,79,60,43,53,42,21,100,62,15,29.89,29.81,15,5,24,0.00
2013-9-4,78,60,40,55,42,14,100,63,11,29.92,29.82,14,4,26,0.00
2013-9-5,72,55,41,56,47,41,100,77,43,29.97,29.82,14,4,22,0.02
2013-9-6,75,54,36,52,45,35,100,75,40,30.03,29.91,5,2,12,0.00
2013-9-7,86,62,42,54,47,34,100,66,18,29.95,29.82,6,2,12,0.00
2013-9-8,82,63,42,57,48,42,100,63,31,29.93,29.83,15,3,21,0.00
2013-9-9,82,65,43,53,46,38,95,54,28,29.93,29.78,8,3,12,0.00
2013-9-10,88,66,46,55,47,40,82,53,22,29.88,29.77,8,3,13,0.00
2013-9-11,89,65,45,54,46,38,85,55,20,29.92,29.83,7,2,11,0.00
2013-9-12,87,67,49,62,52,42,90,62,32,29.91,29.83,7,2,12,0.00
2013-9-13,85,69,49,60,52,41,100,61,31,29.86,29.73,10,3,16,0.00
2013-9-14,90,66,43,60,47,41,94,55,21,29.79,29.66,6,2,17,0.00
2013-9-15,81,63,44,55,38,16,97,54,10,29.77,29.68,17,6,36,0.00
2013-9-16,77,58,40,52,45,37,100,69,25,29.84,29.72,9,3,16,0.00
2013-9-17,61,51,43,52,46,39,100,82,61,29.88,29.67,16,5,29,0.33
2013-9-18,69,50,34,47,40,34,100,74,31,29.94,29.86,7,2,15,0.00
2013-9-19,80,54,34,46,36,17,95,61,10,29.89,29.73,9,3,13,0.00
2013-9-20,76,54,34,48,34,12,100,60,10,29.74,29.57,16,6,32,0.39
2013-9-21,56,48,41,51,46,41,100,92,63,29.71,29.60,11,4,17,0.28
2013-9-22,55,48,37,48,43,36,100,85,62,29.83,29.71,11,5,18,0.00
2013-9-23,68,55,46,52,47,40,100,78,36,29.89,29.80,12,4,18,0.00
2013-9-24,56,47,39,46,43,37,99,85,56,29.83,29.71,16,6,23,0.25
2013-9-25,51,41,32,39,35,30,100,82,60,29.80,29.70,12,6,26,0.00
2013-9-26,56,41,26,43,32,24,100,74,41,29.96,29.81,13,4,20,0.01
2013-9-27,63,43,24,40,32,22,100,71,32,30.01,29.93,8,3,14,0.00
2013-9-28,64,51,37,44,38,33,96,64,34,29.94,29.68,21,7,36,0.00
2013-9-29,57,54,50,53,47,38,100,78,52,29.73,29.63,24,15,42,0.31
2013-9-30,58,50,34,50,43,31,100,77,52,29.86,29.62,20,9,36,0.14
2013-10-1,56,44,32,40,35,28,99,75,42,29.95,29.85,14,5,31,0.00
2013-10-2,55,40,28,39,31,25,100,75,40,30.14,29.88,19,5,34,0.00
2013-10-3,57,41,25,38,29,23,100,67,29,30.33,30.12,12,4,21,0.00
2013-10-4,64,46,30,36,29,22,82,56,22,30.42,30.33,11,4,21,0.00
2013-10-5,76,47,27,38,29,21,85,57,15,30.39,30.26,8,2,14,0.00
2013-10-6,74,49,30,39,31,22,85,58,15,30.27,30.10,7,2,11,0.00
2013-10-7,44,34,31,41,32,28,99,92,83,30.13,30.08,2,0,3,0.00
2013-10-8,55,41,23,40,33,22,100,75,38,30.12,29.92,15,4,24,0.00
2013-10-9,52,42,34,36,31,27,85,66,48,29.97,29.89,18,8,28,0.00
2013-10-10,62,44,30,40,33,21,96,70,21,30.06,29.93,13,4,17,0.00
2013-10-11,57,39,21,43,32,20,100,78,45,30.13,30.05,6,1,9,0.00
2013-10-12,54,30,21,41,26,18,97,86,56,30.07,30.01,3,1,8,0.00
2013-10-13,56,43,34,37,32,27,81,67,44,30.26,30.09,12,4,18,0.00
2013-10-14,62,42,26,37,29,22,92,63,32,30.31,30.23,11,4,16,0.00
2013-10-15,64,45,29,36,28,21,85,57,20,30.32,30.19,9,4,17,0.00
2013-10-16,69,43,26,34,27,20,85,59,18,30.20,29.93,8,3,12,0.00
2013-10-17,66,44,25,38,31,21,92,65,32,30.03,29.95,6,2,10,0.00
2013-10-18,72,44,24,37,29,20,92,62,18,30.06,29.96,4,1,9,0.00
2013-10-19,75,44,24,37,28,13,91,64,10,30.04,29.95,5,1,11,0.00
2013-10-20,72,45,25,41,31,20,99,65,15,30.01,29.92,6,1,11,0.00
2013-10-21,76,50,28,40,33,25,90,57,21,30.01,29.90,8,2,16,0.00
2013-10-22,76,47,28,41,32,23,92,64,21,29.99,29.89,4,1,8,0.00
2013-10-23,75,45,25,40,31,22,94,66,18,29.94,29.85,7,1,14,0.00
2013-10-24,80,44,25,39,29,21,90,64,12,29.96,29.88,4,1,7,0.00
2013-10-25,73,43,26,40,28,11,93,64,10,30.08,29.96,6,1,11,0.00
2013-10-26,73,42,23,37,26,12,92,61,10,30.12,29.94,5,1,8,0.00
2013-10-27,59,38,24,40,29,18,88,74,21,29.94,29.55,27,6,36,0.00
2013-10-28,40,38,34,36,31,24,93,78,64,29.89,29.68,12,6,17,0.00
2013-10-29,52,34,22,30,24,17,87,68,42,30.06,29.89,7,2,12,0.00
2013-10-30,58,36,20,37,29,17,95,76,37,30.20,30.06,7,2,11,0.00
2013-10-31,67,39,23,44,31,22,100,78,39,30.28,30.20,8,2,13,0.00
2013-11-1,65,38,24,43,31,22,100,79,31,30.27,30.08,5,1,11,0.00
2013-11-2,50,36,25,42,31,22,100,83,59,30.12,29.95,18,6,28,0.01
2013-11-3,43,30,16,32,22,13,96,76,50,30.13,30.07,10,3,17,0.00
2013-11-4,21,18,15,19,14,11,90,84,82,30.10,30.09,2,0,4,0.00
2013-11-10,64,45,27,40,26,9,93,56,16,30.16,30.11,9,4,13,0.00
2013-11-11,68,51,33,33,20,10,73,36,10,30.21,30.13,19,5,25,0.00
2013-11-12,66,55,45,44,27,13,90,41,17,30.36,30.19,16,5,21,0.00
2013-11-13,60,43,25,47,36,20,100,78,42,30.39,30.25,10,2,12,0.00
2013-11-14,56,35,20,34,24,9,85,66,16,30.25,30.02,15,5,21,0.00
2013-11-15,46,32,16,32,24,12,93,71,50,30.02,29.76,11,4,14,0.00
2013-11-16,45,37,23,38,30,18,92,76,58,29.93,29.70,27,11,34,0.01
2013-11-17,52,32,18,35,25,13,96,77,42,30.08,29.94,5,2,13,0.00
2013-11-18,48,38,23,39,32,19,92,80,64,30.06,29.95,14,6,23,0.08
2013-11-19,50,44,39,43,38,36,92,80,70,29.98,29.88,12,6,23,0.04
2013-11-20,44,38,26,44,31,9,100,78,47,30.13,29.89,14,5,25,0.13
2013-11-21,44,30,19,10,-2,-12,47,26,16,30.42,30.13,17,7,31,0.00
2013-11-22,54,34,15,10,3,-5,54,29,15,30.43,30.32,11,4,20,0.00
2013-11-23,59,33,17,22,11,5,70,44,15,30.32,30.16,7,2,12,0.00
2013-11-24,54,27,13,22,11,4,78,57,16,30.28,30.20,3,1,10,0.00
2013-11-25,58,30,15,25,15,8,78,59,20,30.35,30.27,5,1,12,0.00
2013-11-26,54,31,18,26,18,10,81,62,26,30.28,30.12,6,2,13,0.00
2013-11-27,48,30,23,29,23,17,84,74,46,30.11,30.03,8,3,13,0.00
2013-11-28,59,32,19,32,22,14,92,71,25,30.18,30.03,4,1,5,0.00
2013-11-29,58,33,16,34,23,12,93,69,29,30.29,30.18,5,1,8,0.00
2013-11-30,58,37,24,39,30,22,92,76,47,30.35,30.28,6,2,11,0.00
2013-12-1,58,39,26,42,32,23,100,80,52,30.36,30.15,15,5,24,0.01
2013-12-2,44,39,29,41,33,20,93,78,65,30.14,29.87,23,9,34,0.19
2013-12-3,32,23,13,21,11,-1,80,60,44,30.03,29.91,16,5,24,0.00
2013-12-4,28,14,5,6,-1,-6,66,53,30,30.08,30.02,8,3,13,0.00
2013-12-5,27,12,-1,5,-2,-12,65,54,31,30.09,29.99,5,2,8,0.00
2013-12-6,28,20,9,19,13,0,85,72,60,29.99,29.75,19,5,30,0.00
2013-12-7,23,6,-16,18,-4,-28,84,61,47,30.16,29.73,10,3,16,0.00
2013-12-8,14,-5,-16,2,-17,-28,64,53,45,30.38,30.15,5,1,8,0.00
2013-12-9,26,0,-12,9,-13,-25,63,53,41,30.46,30.37,6,2,12,0.00
2013-12-10,26,9,-4,11,-2,-14,66,59,50,30.39,30.29,6,2,10,0.00
2013-12-11,37,12,2,20,2,-7,73,63,45,30.34,30.26,10,2,13,0.00
2013-12-12,35,18,3,20,9,-5,75,67,53,30.26,30.16,8,2,14,0.00
2013-12-13,47,28,17,34,21,9,82,72,58,30.42,30.21,5,1,12,0.00
2013-12-14,39,22,15,31,16,9,84,76,66,30.49,30.40,7,2,13,0.00
2013-12-15,41,20,9,29,13,1,81,71,58,30.46,30.38,3,1,8,0.00
2013-12-16,46,23,11,28,14,4,80,69,49,30.44,30.34,4,1,7,0.00
2013-12-17,49,25,14,30,16,8,79,68,45,30.33,30.16,8,2,14,0.00
2013-12-18,38,26,13,28,18,6,78,72,62,30.15,29.88,6,2,11,0.00
2013-12-19,33,25,9,23,9,-3,78,52,28,30.09,29.90,14,5,31,0.00
2013-12-20,38,25,7,36,14,-4,90,62,44,30.10,29.96,6,2,11,0.00
2013-12-21,49,36,22,36,29,17,85,75,54,30.21,29.99,10,4,15,0.00
2013-12-22,52,32,21,39,24,16,85,75,55,30.38,30.20,5,1,8,0.00
2013-12-23,46,32,20,36,26,16,86,79,66,30.43,30.36,4,1,8,0.00
2013-12-24,39,30,20,34,26,16,88,83,75,30.47,30.39,8,3,15,0.01
2013-12-25,43,25,16,35,18,10,86,78,63,30.47,30.37,4,1,5,0.01
2013-12-26,50,27,14,31,18,8,83,68,42,30.41,30.30,4,1,7,0.00
2013-12-27,36,25,16,26,18,8,82,72,63,30.30,30.19,9,3,15,0.00
2013-12-28,52,26,11,30,12,4,82,60,21,30.35,30.23,5,1,8,0.01
2013-12-29,42,25,14,20,12,4,72,58,34,30.37,30.27,6,2,11,0.00
2013-12-30,43,28,17,21,15,6,72,58,35,30.29,30.22,6,2,11,0.00
2013-12-31,58,34,22,26,18,13,81,57,20,30.30,30.23,6,1,11,0.00
2014-1-1,52,29,17,28,19,11,82,68,33,30.33,30.24,7,2,15,0.00
2014-1-2,54,30,17,31,21,12,87,72,35,30.30,30.14,4,1,7,0.00